Weather History for K4M9 - August, 2013

Change the Weather History Date:

Thursday, August 8, 2013

  Actual Average (KARG) Record (KARG)
Temperature  
Mean Temperature 80 °F -  
Max Temperature 86 °F 85 °F 96 °F (2000)
Min Temperature 73 °F 67 °F 57 °F (2004)
Cooling Degree Days 14    
Growing Degree Days 30 (Base 50)    
Moisture  
Dew Point 76 °F    
Average Humidity 94    
Maximum Humidity 100    
Minimum Humidity 70    
Precipitation  
Precipitation 0.17 in - - ()
Sea Level Pressure  
Sea Level Pressure 29.92 in    
Wind  
Wind Speed 4 mph (NE)    
Max Wind Speed 10 mph    
Max Gust Speed -    
Visibility 8 miles    
Events Fog , Rain , Thunderstorm    
Averages and records for this station are not official NWS values.
T = Trace of Precipitation, MM = Missing Value Source: NWS Daily Summary

Daily Weather History Graph

Daily Weather History Graph

Search for Another Location

Airport or City:

Trip Planner

Search our weather history database for the weather conditions in past years. The results will help you decide how hot, cold, wet, or windy it might be!

Date:

Astronomy

Aug. 08, 2013 Rise Set
Actual Time 6:14 AM CDT 8:00 PM CDT
Civil Twilight 5:47 AM CDT 8:28 PM CDT
Nautical Twilight 5:13 AM CDT 9:02 PM CDT
Astronomical Twilight 4:37 AM CDT 9:37 PM CDT
Moon 7:57 AM CDT (8/8) 8:45 PM CDT (8/8)
Length of Visible Light 14h 41m
Length of Day
13h 45m
Waxing Crescent, 3% of the Moon is Illuminated
Aug 8
Waxing Crescent
Aug 14
First Quarter
Aug 20
Full
Aug 28
Last Quarter
Sep 5
New

Hourly Weather History & Observations

Time (CDT) Temp. Heat Index Dew Point Humidity Pressure Visibility Wind Dir Wind Speed Gust Speed Precip Events Conditions
12:15 AM 75.2 °F - 75.2 °F 100% 29.93 in 10.0 mi Calm Calm - N/A   Clear
12:35 AM 73.4 °F - 73.4 °F 100% 29.92 in 10.0 mi Calm Calm - N/A   Clear
12:55 AM 75.2 °F - 75.2 °F 100% 29.93 in 10.0 mi NE 4.6 mph - N/A   Clear
1:15 AM 75.2 °F - 75.2 °F 100% 29.92 in 10.0 mi NNE 3.5 mph - N/A   Clear
1:35 AM 75.2 °F - 75.2 °F 100% 29.91 in 10.0 mi NNE 3.5 mph - N/A   Clear
1:55 AM 75.2 °F - 75.2 °F 100% 29.91 in 10.0 mi NNE 3.5 mph - N/A   Clear
2:15 AM 73.4 °F - 73.4 °F 100% 29.89 in 10.0 mi NE 3.5 mph - N/A   Clear
2:35 AM 73.4 °F - 73.4 °F 100% 29.89 in 10.0 mi NNE 3.5 mph - N/A   Clear
2:55 AM 73.4 °F - 73.4 °F 100% 29.91 in 10.0 mi Calm Calm - N/A Thunderstorm Clear
3:15 AM 73.4 °F - 73.4 °F 100% 29.90 in 9.0 mi Calm Calm - N/A   Clear
3:35 AM 73.4 °F - 73.4 °F 100% 29.91 in 7.0 mi West 4.6 mph - N/A Thunderstorm Scattered Clouds
3:55 AM 73.4 °F - 73.4 °F 100% 29.91 in 6.0 mi WNW 3.5 mph - N/A   Mostly Cloudy
4:15 AM 73.4 °F - 73.4 °F 100% 29.92 in 6.0 mi West 4.6 mph - N/A   Scattered Clouds
4:35 AM 73.4 °F - 73.4 °F 100% 29.91 in 7.0 mi Calm Calm - N/A   Mostly Cloudy
4:55 AM 73.4 °F - 73.4 °F 100% 29.89 in 7.0 mi Calm Calm - N/A   Partly Cloudy
5:15 AM 73.4 °F - 73.4 °F 100% 29.88 in 5.0 mi NNE 3.5 mph - N/A   Scattered Clouds
5:35 AM 73.4 °F - 73.4 °F 100% 29.88 in 0.5 mi North 5.8 mph - N/A Fog , Thunderstorm Fog
5:55 AM 73.4 °F - 73.4 °F 100% 29.88 in 6.0 mi NE 5.8 mph - N/A   Partly Cloudy
6:15 AM 73.4 °F - 73.4 °F 100% 29.89 in 4.0 mi NE 3.5 mph - N/A   Scattered Clouds
6:35 AM 73.4 °F - 73.4 °F 100% 29.89 in 5.0 mi ENE 4.6 mph - N/A   Partly Cloudy
6:55 AM 73.4 °F - 73.4 °F 100% 29.90 in 6.0 mi North 4.6 mph - N/A   Clear
7:15 AM 73.4 °F - 73.4 °F 100% 29.93 in 4.0 mi North 6.9 mph - N/A   Clear
7:35 AM 73.4 °F - 73.4 °F 100% 29.93 in 2.5 mi North 3.5 mph - N/A   Clear
7:55 AM 75.2 °F - 75.2 °F 100% 29.93 in 6.0 mi NNE 8.1 mph - N/A   Clear
8:15 AM 75.2 °F - 75.2 °F 100% 29.94 in 5.0 mi NNE 4.6 mph - N/A   Clear
8:35 AM 75.2 °F - 75.2 °F 100% 29.96 in 6.0 mi Calm Calm - N/A   Clear
8:55 AM 75.2 °F - 75.2 °F 100% 29.97 in 7.0 mi West 4.6 mph - N/A Thunderstorm Partly Cloudy
9:15 AM 75.2 °F - 75.2 °F 100% 29.97 in 3.0 mi WNW 5.8 mph - N/A   Scattered Clouds
9:35 AM 75.2 °F - 75.2 °F 100% 29.97 in 3.0 mi NW 3.5 mph - N/A   Partly Cloudy
9:55 AM 75.2 °F - 75.2 °F 100% 29.98 in 3.0 mi WNW 5.8 mph - N/A   Partly Cloudy
10:15 AM 77.0 °F - 77.0 °F 100% 29.99 in 7.0 mi NW 3.5 mph - N/A   Clear
10:35 AM 77.0 °F - 77.0 °F 100% 29.98 in 10.0 mi NNW 4.6 mph - N/A   Clear
10:55 AM 77.0 °F - 77.0 °F 100% 29.96 in 10.0 mi NNE 4.6 mph - N/A   Clear
11:15 AM 78.8 °F - 77.0 °F 94% 29.93 in 10.0 mi ENE 10.4 mph - N/A   Clear
11:35 AM 78.8 °F - 77.0 °F 94% 29.92 in 10.0 mi ENE 8.1 mph - N/A   Clear
11:55 AM 80.6 °F 87.1 °F 77.0 °F 89% 29.92 in 10.0 mi ESE 8.1 mph - N/A   Unknown
12:15 PM 80.6 °F 87.1 °F 77.0 °F 89% 29.91 in 10.0 mi ESE 9.2 mph - N/A   Unknown
12:35 PM 80.6 °F 87.1 °F 77.0 °F 89% 29.90 in 10.0 mi SE 10.4 mph - N/A   Unknown
12:55 PM 82.4 °F 90.9 °F 77.0 °F 84% 29.90 in 10.0 mi ESE 8.1 mph - N/A   Unknown
1:15 PM 82.4 °F 90.9 °F 77.0 °F 84% 29.90 in 10.0 mi ESE 9.2 mph - N/A   Unknown
1:35 PM 84.2 °F 94.1 °F 77.0 °F 79% 29.90 in 10.0 mi ESE 9.2 mph - N/A Rain Light Rain
1:55 PM 84.2 °F 94.1 °F 77.0 °F 79% 29.90 in 10.0 mi East 5.8 mph - N/A Rain Light Rain
2:15 PM 84.2 °F 94.1 °F 77.0 °F 79% 29.90 in 10.0 mi ENE 4.6 mph - N/A Rain Light Rain
2:35 PM 84.2 °F 94.1 °F 77.0 °F 79% 29.90 in 10.0 mi East 3.5 mph - N/A Rain Light Rain
2:55 PM 86.0 °F 95.1 °F 75.2 °F 70% 29.90 in 10.0 mi NNE 4.6 mph - 0.01 in Rain Light Rain
3:15 PM 86.0 °F 96.9 °F 77.0 °F 74% 29.90 in 10.0 mi NE 5.8 mph - N/A Rain Light Rain
3:35 PM 84.2 °F 94.1 °F 77.0 °F 79% 29.90 in 10.0 mi NNE 8.1 mph - N/A Rain Light Rain
3:55 PM 84.2 °F 94.1 °F 77.0 °F 79% 29.91 in 10.0 mi NNE 8.1 mph - 0.01 in Rain Light Rain
4:15 PM 84.2 °F 94.1 °F 77.0 °F 79% 29.91 in 10.0 mi NNE 10.4 mph - N/A Rain Light Rain
4:35 PM 84.2 °F 94.1 °F 77.0 °F 79% 29.92 in 10.0 mi NE 9.2 mph - N/A Rain Light Rain
4:55 PM 86.0 °F 96.9 °F 77.0 °F 74% 29.92 in 10.0 mi NE 8.1 mph - 0.01 in Rain Light Rain
5:15 PM 84.2 °F 94.1 °F 77.0 °F 79% 29.92 in 10.0 mi ENE 6.9 mph - N/A Rain Light Rain
5:35 PM 84.2 °F 94.1 °F 77.0 °F 79% 29.91 in 10.0 mi NE 8.1 mph - N/A Rain Light Rain
5:55 PM 84.2 °F 94.1 °F 77.0 °F 79% 29.90 in 10.0 mi NE 8.1 mph - 0.01 in Rain Light Rain
6:15 PM 84.2 °F 94.1 °F 77.0 °F 79% 29.90 in 10.0 mi NE 8.1 mph - N/A Rain Light Rain
6:35 PM 82.4 °F 90.9 °F 77.0 °F 84% 29.89 in 10.0 mi NE 6.9 mph - N/A Rain Light Rain
6:55 PM 80.6 °F 87.1 °F 77.0 °F 89% 29.92 in 10.0 mi ENE 4.6 mph - N/A Rain Light Rain
7:15 PM 80.6 °F 87.1 °F 77.0 °F 89% 29.91 in 9.0 mi NE 4.6 mph - N/A   Clear
7:35 PM 80.6 °F 87.1 °F 77.0 °F 89% 29.90 in 9.0 mi ENE 4.6 mph - N/A   Clear
7:55 PM 78.8 °F - 77.0 °F 94% 29.90 in 9.0 mi East 5.8 mph - N/A   Clear
8:15 PM 77.0 °F - 77.0 °F 100% 29.91 in 9.0 mi East 4.6 mph - N/A   Clear
8:35 PM 77.0 °F - 77.0 °F 100% 29.91 in 8.0 mi East 8.1 mph - N/A   Clear
8:55 PM 77.0 °F - 77.0 °F 100% 29.92 in 7.0 mi East 3.5 mph - N/A   Clear
9:15 PM 77.0 °F - 77.0 °F 100% 29.92 in 7.0 mi East 6.9 mph - N/A   Clear
9:35 PM 77.0 °F - 77.0 °F 100% 29.93 in 7.0 mi East 4.6 mph - N/A Thunderstorm Clear
9:55 PM 77.0 °F - 77.0 °F 100% 29.94 in 7.0 mi ENE 3.5 mph - N/A   Clear
10:15 PM 77.0 °F - 77.0 °F 100% 29.94 in 3.0 mi Calm Calm - 0.02 in Rain Light Rain
10:35 PM 77.0 °F - 77.0 °F 100% 29.95 in 3.0 mi Calm Calm - 0.06 in Rain Light Rain
10:55 PM 77.0 °F - 77.0 °F 100% 29.95 in 3.0 mi NNW 4.6 mph - 0.08 in Rain , Thunderstorm Light Rain
11:15 PM 77.0 °F - 77.0 °F 100% 29.95 in 2.5 mi WNW 3.5 mph - 0.02 in Rain Light Rain
11:35 PM 77.0 °F - 77.0 °F 100% 29.94 in 3.0 mi Calm Calm - 0.04 in Rain , Thunderstorm Light Rain
11:55 PM 77.0 °F - 77.0 °F 100% 29.94 in 2.0 mi WNW 5.8 mph - 0.05 in Rain , Thunderstorm Light Rain